Flag for U.S.A. Weather past 2 weeks in Fairfax, Virginia, U.S.A.

Now
20 °F

Clear.


Feels Like: 8 °F
Forecast: 20 / 35 °F
Wind: 12 mph from Northwest

Location: Washington-Dulles International Airport

Current Time: Jan 28, 2015 at 7:20:59 AM

Latest Report: Jan 28, 2015 at 6:52 AM


Visibility: 10 mi

Pressure: 30.17 "Hg

Humidity: 60%

Dew point: 8 °F

Location of FairfaxLocation

Historic Weather in Fairfax — Graph

°F

Fairfax temperature yesterday

Maximum temperature yesterday: 31 °F (at 11:52 AM)
Minimum temperature yesterday: 26 °F (at 12:52 AM)
Average temperature yesterday: 28 °F

Past Weeks' High & Low Weather Summary

 TemperatureHumidityPressure
High46 °F (Jan 19, 2:52 PM)100% (Jan 21, 12:52 PM)30.58 "Hg (Jan 21, 12:52 PM)
Low19 °F (Jan 16, 6:52 AM)37% (Jan 19, 3:52 PM)29.48 "Hg (Jan 24, 1:52 PM)
Average32 °F73%30.05 "Hg
* Reported Jan 13 5:52 AM — Jan 28 5:52 AM, Fairfax, Weather by CustomWeather, © 2014

Note: Actual official high and low records may vary slightly from our data, if they occured in-between our weather recording intervals... More about our weather records

Advertising

Fairfax weather history for previous 24 hours

 ConditionsComfort  
Time TempWeatherWind HumidityBarometerVisibility
5:52 AM
Jan 28
20 °FClear.9 mph60%30.13 "Hg10 mi
4:52 AM21 °FClear.13 mph60%30.11 "Hg10 mi
3:52 AM22 °FPassing clouds.15 mph60%30.08 "Hg10 mi
2:52 AM23 °FClear.17 mph60%30.07 "Hg10 mi
1:52 AM24 °FClear.18 mph60%30.05 "Hg10 mi
12:52 AM25 °FPassing clouds.20 mph60%30.02 "Hg10 mi
11:52 PM
Jan 27
26 °FPassing clouds.20 mph60%30.00 "Hg10 mi
10:52 PM27 °FPassing clouds.14 mph58%29.98 "Hg10 mi
9:52 PM27 °FPassing clouds.18 mph61%29.94 "Hg10 mi
8:52 PM27 °FPassing clouds.17 mph63%29.93 "Hg10 mi
7:52 PM28 °FClear.17 mph64%29.91 "Hg10 mi
6:52 PM30 °FOvercast.15 mph64%29.89 "Hg10 mi
5:52 PM31 °FPassing clouds.17 mph67%29.88 "Hg10 mi
4:52 PM31 °FPartly sunny.15 mph69%29.86 "Hg10 mi
3:52 PM31 °FPartly sunny.17 mph69%29.85 "Hg10 mi
2:52 PM31 °FPartly sunny.17 mph69%29.83 "Hg10 mi
1:52 PM31 °FPartly sunny.18 mph69%29.82 "Hg10 mi
12:52 PM31 °FPartly sunny.17 mph69%29.82 "Hg10 mi
11:52 AM31 °FMostly cloudy.17 mph67%29.83 "Hg10 mi
10:52 AM29 °FBroken clouds.21 mph69%29.84 "Hg10 mi
9:52 AM28 °FBroken clouds.15 mph72%29.83 "Hg10 mi
8:52 AM27 °FBroken clouds.15 mph75%29.83 "Hg10 mi
8:00 AM27 °FLight snow. Broken clouds.16 mph80%29.81 "Hg4 mi
Weather by CustomWeather, © 2014

See weather overviewHow to use our weather pages